• In Germany
  • List of Countries
  • For 7 days
  • Water Temperature
  • Satellite Maps
  • Weather Map
  • Weather Widgets
  • user-avatar
    Login

    Hourly Weather Kapan

    Today, 23 September, Saturday

    Time Temperature Precipitation Wind Pressure Humidity
    00:00 +24°C° 0 mm 1 mps 684 mmHg 57%
    01:00 +23°C° 0.1 mm 1 mps 684 mmHg 59%
    02:00 +23°C° 0.1 mm 1 mps 684 mmHg 61%
    03:00 +23°C° 0 mm 1 mps 684 mmHg 61%
    04:00 +22°C° 0 mm 1 mps 684 mmHg 63%
    05:00 +22°C° 0 mm 1 mps 685 mmHg 65%
    06:00 +20°C° 0 mm 2 mps 685 mmHg 67%
    07:00 +23°C° 0 mm 2 mps 685 mmHg 60%
    08:00 +25°C° 0 mm 2 mps 686 mmHg 53%
    09:00 +27°C° 0 mm 2 mps 686 mmHg 45%
    10:00 +28°C° 0 mm 3 mps 686 mmHg 42%
    11:00 +29°C° 0 mm 3 mps 686 mmHg 38%
    12:00 +30°C° 0 mm 3 mps 686 mmHg 35%
    13:00 +30°C° 0 mm 3 mps 686 mmHg 36%
    14:00 +30°C° 0 mm 3 mps 685 mmHg 37%
    15:00 +30°C° 0 mm 3 mps 685 mmHg 34%
    16:00 +29°C° 0.1 mm 3 mps 685 mmHg 42%
    17:00 +27°C° 0.1 mm 3 mps 685 mmHg 50%
    18:00 +25°C° 0.1 mm 3 mps 685 mmHg 58%
    19:00 +24°C° 0 mm 3 mps 685 mmHg 63%
    20:00 +23°C° 0 mm 2 mps 685 mmHg 69%
    21:00 +21°C° 0 mm 2 mps 685 mmHg 74%
    22:00 +20°C° 0 mm 2 mps 685 mmHg 75%
    23:00 +21°C° 0 mm 1 mps 685 mmHg 76%

    Tomorrow, 24 September, Sunday

    Time Temperature Precipitation Wind Pressure Humidity
    00:00 +20°C° 0 mm 1 mps 685 mmHg 77%
    01:00 +20°C° 0 mm 1 mps 685 mmHg 78%
    02:00 +20°C° 0 mm 1 mps 686 mmHg 78%
    03:00 +20°C° 0 mm 1 mps 686 mmHg 78%
    04:00 +19°C° 0 mm 1 mps 686 mmHg 78%
    05:00 +19°C° 0 mm 1 mps 686 mmHg 78%
    06:00 +19°C° 0 mm 1 mps 686 mmHg 79%
    07:00 +20°C° 0 mm 2 mps 687 mmHg 71%
    08:00 +21°C° 0 mm 2 mps 687 mmHg 63%
    09:00 +24°C° 0 mm 2 mps 688 mmHg 55%
    10:00 +25°C° 0 mm 2 mps 688 mmHg 51%
    11:00 +26°C° 0 mm 3 mps 688 mmHg 47%
    12:00 +27°C° 0 mm 3 mps 688 mmHg 43%
    13:00 +27°C° 0 mm 3 mps 687 mmHg 43%
    14:00 +27°C° 0 mm 3 mps 687 mmHg 43%
    15:00 +28°C° 0 mm 3 mps 687 mmHg 43%
    16:00 +26°C° 0.1 mm 3 mps 687 mmHg 48%
    17:00 +24°C° 0.1 mm 3 mps 686 mmHg 54%
    18:00 +22°C° 0.1 mm 3 mps 686 mmHg 59%
    19:00 +21°C° 0 mm 2 mps 687 mmHg 63%
    20:00 +20°C° 0 mm 2 mps 687 mmHg 67%
    21:00 +19°C° 0 mm 2 mps 687 mmHg 72%
    22:00 +20°C° 0 mm 1 mps 687 mmHg 73%
    23:00 +19°C° 0 mm 1 mps 687 mmHg 74%

    Day after tomorrow, 25 September, Monday

    Time Temperature Precipitation Wind Pressure Humidity
    00:00 +19°C° 0 mm 1 mps 687 mmHg 75%
    01:00 +19°C° 0 mm 1 mps 687 mmHg 75%
    02:00 +19°C° 0 mm 1 mps 687 mmHg 75%
    03:00 +18°C° 0 mm 1 mps 687 mmHg 75%
    04:00 +18°C° 0 mm 1 mps 687 mmHg 75%
    05:00 +18°C° 0 mm 1 mps 687 mmHg 75%
    06:00 +18°C° 0 mm 1 mps 687 mmHg 76%
    07:00 +20°C° 0 mm 1 mps 688 mmHg 67%
    08:00 +20°C° 0 mm 2 mps 688 mmHg 59%
    09:00 +23°C° 0 mm 2 mps 688 mmHg 51%
    10:00 +24°C° 0 mm 2 mps 688 mmHg 46%
    11:00 +25°C° 0 mm 3 mps 688 mmHg 42%
    12:00 +26°C° 0 mm 3 mps 688 mmHg 38%
    13:00 +27°C° 0 mm 3 mps 688 mmHg 38%
    14:00 +27°C° 0 mm 3 mps 687 mmHg 37%
    15:00 +27°C° 0 mm 3 mps 687 mmHg 37%
    16:00 +25°C° 0.1 mm 3 mps 687 mmHg 42%
    17:00 +24°C° 0.1 mm 3 mps 687 mmHg 48%
    18:00 +21°C° 0.1 mm 2 mps 686 mmHg 53%
    19:00 +20°C° 0 mm 2 mps 687 mmHg 58%
    20:00 +19°C° 0 mm 2 mps 687 mmHg 62%
    21:00 +19°C° 0 mm 1 mps 687 mmHg 66%
    22:00 +19°C° 0 mm 1 mps 687 mmHg 67%
    23:00 +19°C° 0 mm 1 mps 687 mmHg 68%

    26 September, Tuesday

    Time Temperature Precipitation Wind Pressure Humidity
    00:00 +18°C° 0 mm 1 mps 687 mmHg 69%
    01:00 +18°C° 0 mm 1 mps 687 mmHg 69%
    02:00 +18°C° 0 mm 1 mps 687 mmHg 70%
    03:00 +18°C° 0 mm 1 mps 686 mmHg 70%
    04:00 +16°C° 0 mm 1 mps 686 mmHg 71%
    05:00 +16°C° 0 mm 1 mps 686 mmHg 71%
    06:00 +16°C° 0 mm 1 mps 686 mmHg 72%
    07:00 +19°C° 0 mm 1 mps 687 mmHg 64%
    08:00 +20°C° 0 mm 2 mps 687 mmHg 57%
    09:00 +23°C° 0 mm 2 mps 688 mmHg 49%
    10:00 +24°C° 0 mm 2 mps 688 mmHg 46%
    11:00 +25°C° 0 mm 3 mps 687 mmHg 42%
    12:00 +26°C° 0 mm 3 mps 687 mmHg 39%
    13:00 +26°C° 0 mm 3 mps 687 mmHg 40%
    14:00 +26°C° 0 mm 3 mps 687 mmHg 41%
    15:00 +26°C° 0 mm 3 mps 686 mmHg 42%
    16:00 +24°C° 0 mm 3 mps 686 mmHg 51%
    17:00 +22°C° 0 mm 3 mps 686 mmHg 60%
    18:00 +20°C° 0 mm 3 mps 686 mmHg 69%
    19:00 +19°C° 0 mm 2 mps 686 mmHg 73%
    20:00 +19°C° 0 mm 2 mps 686 mmHg 77%
    21:00 +18°C° 0 mm 2 mps 686 mmHg 81%
    22:00 +18°C° 0 mm 2 mps 686 mmHg 81%
    23:00 +17°C° 0 mm 2 mps 686 mmHg 82%

    27 September, Wednesday

    Time Temperature Precipitation Wind Pressure Humidity
    00:00 +17°C° 0 mm 2 mps 686 mmHg 83%
    01:00 +17°C° 0 mm 2 mps 686 mmHg 83%
    02:00 +16°C° 0 mm 1 mps 686 mmHg 83%
    03:00 +16°C° 0 mm 1 mps 686 mmHg 84%
    04:00 +16°C° 0 mm 1 mps 686 mmHg 83%
    05:00 +16°C° 0 mm 1 mps 686 mmHg 83%
    06:00 +16°C° 0 mm 1 mps 686 mmHg 83%
    07:00 +18°C° 0 mm 1 mps 686 mmHg 75%
    08:00 +19°C° 0 mm 2 mps 686 mmHg 66%
    09:00 +21°C° 0 mm 2 mps 687 mmHg 57%
    10:00 +22°C° 0 mm 3 mps 687 mmHg 52%
    11:00 +25°C° 0 mm 3 mps 686 mmHg 48%
    12:00 +26°C° 0 mm 3 mps 686 mmHg 43%
    13:00 +26°C° 0 mm 4 mps 686 mmHg 45%
    14:00 +25°C° 0 mm 4 mps 685 mmHg 48%
    15:00 +25°C° 0 mm 4 mps 685 mmHg 50%
    16:00 +22°C° 0 mm 4 mps 685 mmHg 58%
    17:00 +21°C° 0 mm 3 mps 685 mmHg 66%
    18:00 +19°C° 0 mm 3 mps 684 mmHg 75%
    19:00 +18°C° 0 mm 3 mps 685 mmHg 78%
    20:00 +18°C° 0 mm 3 mps 685 mmHg 80%
    21:00 +17°C° 0 mm 3 mps 685 mmHg 83%
    22:00 +17°C° 0 mm 3 mps 685 mmHg 84%
    23:00 +17°C° 0 mm 3 mps 685 mmHg 85%

    28 September, Thursday

    Time Temperature Precipitation Wind Pressure Humidity
    00:00 +16°C° 0 mm 3 mps 685 mmHg 85%
    01:00 +16°C° 0 mm 2 mps 685 mmHg 86%
    02:00 +16°C° 0 mm 2 mps 686 mmHg 86%
    03:00 +16°C° 0 mm 2 mps 686 mmHg 87%
    04:00 +15°C° 0 mm 2 mps 686 mmHg 87%
    05:00 +15°C° 0 mm 2 mps 686 mmHg 88%
    06:00 +15°C° 0 mm 2 mps 686 mmHg 88%
    07:00 +16°C° 0 mm 2 mps 687 mmHg 83%
    08:00 +17°C° 0 mm 3 mps 687 mmHg 77%
    09:00 +18°C° 0 mm 3 mps 687 mmHg 72%
    10:00 +18°C° 0 mm 3 mps 687 mmHg 69%
    11:00 +19°C° 0 mm 3 mps 687 mmHg 66%
    12:00 +20°C° 0 mm 3 mps 687 mmHg 63%
    13:00 +19°C° 0 mm 3 mps 687 mmHg 65%
    14:00 +19°C° 0 mm 4 mps 686 mmHg 66%
    15:00 +19°C° 0 mm 4 mps 686 mmHg 68%
    16:00 +18°C° 0.1 mm 4 mps 686 mmHg 73%
    17:00 +17°C° 0.1 mm 3 mps 686 mmHg 78%
    18:00 +16°C° 0.1 mm 3 mps 686 mmHg 84%
    19:00 +14°C° 0 mm 3 mps 686 mmHg 84%
    20:00 +14°C° 0 mm 3 mps 687 mmHg 85%
    21:00 +14°C° 0 mm 3 mps 687 mmHg 85%
    22:00 +14°C° 0 mm 2 mps 687 mmHg 86%
    23:00 +14°C° 0 mm 2 mps 687 mmHg 86%
    Show more